CAPE
0 0 0 38 185 0 1082 1507 2024 2411 2551 2532 2335 2021 1994 1625 1780 1436 993 946 843 915 507 310 121 58 202 93 21 29 16 11
0 0 0 0 0 217 613 1237 1766 2505 2234 2574 2166 2237 2084 1457 1540 1492 1110 992 724 691 610 183 74 525 64 0 0 1 8 26
0 0 0 0 0 0 25 349 767 1531 2543 1826 1997 1832 1776 1494 1523 1333 1536 962 881 896 486 279 326 485 14 1 18 0 0 2
0 0 0 0 0 0 0 2 437 909 1025 1483 1662 1629 1248 1066 1373 1009 754 880 946 496 461 509 405 229 267 94 5 0 0 0
0 0 0 0 0 0 0 0 7 295 896 990 1116 1090 799 689 520 569 806 553 475 145 241 182 122 74 186 83 10 0 0 0
0 0 0 0 0 0 0 0 0 0 35 457 680 921 601 644 587 472 477 446 197 305 39 347 43 169 44 70 0 0 0 0
0 0 0 0 0 0 0 0 9 7 3 6 65 287 361 304 375 415 294 191 179 195 73 11 45 18 2 48 16 0 0 0
0 0 0 0 0 0 0 0 0 0 0 0 0 1 0 92 17 83 67 42 25 39 43 26 4 28 4 24 15 7 4 0
0 0 0 0 0 0 0 0 0 0 0 0 0 0 0 0 22 1 4 105 10 4 76 76 34 16 12 4 24 18 20 15
0 0 0 0 0 0 0 0 0 0 0 0 0 0 0 0 0 22 34 13 19 48 84 105 55 72 42 6 13 45 16 19
0 0 0 0 0 0 0 0 0 0 0 0 0 0 0 0 0 0 11 40 49 46 54 80 59 71 85 74 41 20 6 27
0 0 0 0 0 0 0 0 0 0 0 0 0 0 0 0 0 2 10 45 76 59 81 109 74 84 22 41 57 35 34 14
0 0 0 0 0 0 0 0 0 0 0 0 0 0 0 0 0 0 0 0 24 55 45 72 141 74 40 7 45 34 3 10
0 0 0 0 0 0 0 0 3 0 0 0 0 0 0 0 0 0 0 0 0 0 127 99 141 201 114 62 86 113 42 23
0 0 0 0 0 0 11 60 73 31 1 0 0 0 0 0 0 0 0 0 0 0 0 3 14 116 188 144 65 103 74 40
0 0 0 0 0 2 44 48 40 40 20 0 0 0 0 0 0 0 0 0 0 0 0 0 2 45 61 91 55 70 85 64
2 0 0 0 0 6 14 20 16 39 16 1 0 0 0 0 0 0 0 0 0 0 0 0 0 0 43 68 70 46 11 36
4 0 0 0 0 0 6 0 31 35 27 0 0 0 0 0 0 0 0 0 0 0 0 0 0 0 0 1 15 4 3 4
0 0 0 0 1 3 11 16 34 23 7 0 0 0 0 0 0 0 0 0 0 0 0 0 0 0 0 0 7 0 12 18
CIN
0 0 0 -675 -560 0 -235 -171 -100 -57 -11 -12 -23 -30 -36 -56 -37 -53 -69 -53 -65 -43 -18 -2 -14 0 -1 -1 0 0 -2 -8
0 0 0 0 -1 -374 -227 -140 -98 -36 -22 -1 -15 -6 -1 -49 -42 -48 -61 -39 -55 -45 -29 -34 -44 0 -33 0 0 0 0 0
0 0 0 0 0 0 -284 -189 -127 -60 -1 -10 0 -1 0 -5 -9 -18 -5 -14 -4 -1 -27 -23 -13 0 -7 -1 -3 0 0 0
0 0 0 0 0 0 0 -44 -65 -33 -35 -1 0 0 0 -8 0 -9 -17 -6 0 0 -2 0 0 0 0 -5 -5 0 0 0
0 0 0 0 0 0 0 0 -85 -13 -1 0 0 0 0 0 -11 -4 -1 0 0 -9 -32 -32 -30 -20 -40 -2 -11 0 0 0
0 0 0 0 0 0 0 0 0 0 -48 0 0 0 0 0 0 -1 0 0 -3 0 -133 -3 -46 -1 -79 -59 0 0 0 0
0 0 0 0 0 0 0 0 0 0 0 0 -6 -19 -3 -1 0 -1 -5 -15 0 -4 -84 -76 -24 0 0 0 -9 0 0 0
0 0 0 0 0 0 0 0 0 0 0 0 0 -2 0 -1 -43 -8 -14 -38 -35 -10 -28 0 0 -28 0 -1 0 -1 -2 0
0 0 0 0 0 0 0 0 0 0 0 0 0 0 0 0 -7 -1 -2 -11 -14 -93 -33 -42 -34 -7 0 0 0 0 0 0
0 0 0 0 0 0 0 0 0 0 0 0 0 0 0 0 0 -52 -9 -16 -48 -61 -42 -36 -69 -27 -25 -26 0 -2 -1 0
0 0 0 0 0 0 0 0 0 0 0 0 0 0 0 0 0 0 0 -15 -2 -1 -26 -23 -26 -18 -12 -3 -7 -8 -2 -2
0 0 0 0 0 0 0 0 0 0 0 0 0 0 0 0 0 0 -37 -3 0 0 -6 -13 -42 -29 -15 -3 -5 -2 -10 -23
0 0 0 0 0 0 0 0 0 0 0 0 0 0 0 0 0 0 0 -1 -20 0 0 -2 -1 -26 -52 -20 -10 -1 -10 -20
0 0 0 0 0 0 0 -2 -35 -15 0 0 0 0 0 0 0 0 0 0 0 0 -7 0 0 0 -9 -18 -7 0 -4 -16
0 0 0 0 0 0 -1 -6 -8 -19 -2 0 0 0 0 0 0 0 0 0 0 0 0 0 -8 0 0 -8 -32 -1 -2 0
0 0 0 0 0 -24 -11 -3 -7 -8 -18 0 0 0 0 0 0 0 0 0 0 0 0 0 -1 0 0 -4 -13 -4 0 -3
0 0 0 0 0 0 -9 0 -1 -26 -5 -1 0 0 0 0 0 0 0 0 0 0 0 0 0 0 0 0 0 0 -6 -1
0 0 0 -4 0 0 -34 0 -1 -12 -4 -1 0 0 0 0 0 0 0 0 0 0 0 0 0 0 0 -3 -10 -2 -3 0
0 0 0 0 0 0 -6 -4 -18 -9 -2 0 0 0 0 0 0 0 0 0 0 0 0 0 0 0 0 0 -4 0 -1 0
Wind_Speed
nan nan nan nan 51 nan 49 48 41 45 45 44 43 43 44 47 43 40 41 41 43 44 45 49 49 nan 55 nan nan nan nan nan
nan nan nan nan nan 59 56 53 48 52 53 49 45 43 45 44 39 40 40 39 39 41 46 49 nan 48 nan nan nan nan nan nan
nan nan nan nan nan nan nan 57 57 55 51 50 49 51 49 43 38 38 40 44 46 42 47 53 51 51 nan nan nan nan nan nan
nan nan nan nan nan nan nan nan 61 58 56 52 51 52 48 50 45 42 44 48 43 42 48 48 52 50 47 nan nan nan nan nan
nan nan nan nan nan nan nan nan nan 54 52 53 53 58 53 49 51 49 47 48 45 41 49 47 48 nan 45 nan nan nan nan nan
nan nan nan nan nan nan nan nan nan nan nan 52 58 55 54 54 57 51 51 54 52 47 nan 54 nan 47 nan nan nan nan nan nan
nan nan nan nan nan nan nan nan nan nan nan nan nan 54 55 56 56 54 56 59 60 55 nan nan nan nan nan nan nan nan nan nan
nan nan nan nan nan nan nan nan nan nan nan nan nan nan nan nan nan nan nan nan nan nan nan nan nan nan nan nan nan nan nan nan
nan nan nan nan nan nan nan nan nan nan nan nan nan nan nan nan nan nan nan 67 nan nan nan nan nan nan nan nan nan nan nan nan
nan nan nan nan nan nan nan nan nan nan nan nan nan nan nan nan nan nan nan nan nan nan nan 65 nan nan nan nan nan nan nan nan
nan nan nan nan nan nan nan nan nan nan nan nan nan nan nan nan nan nan nan nan nan nan nan nan nan nan nan nan nan nan nan nan
nan nan nan nan nan nan nan nan nan nan nan nan nan nan nan nan nan nan nan nan nan nan nan 69 nan nan nan nan nan nan nan nan
nan nan nan nan nan nan nan nan nan nan nan nan nan nan nan nan nan nan nan nan nan nan nan nan 74 nan nan nan nan nan nan nan
nan nan nan nan nan nan nan nan nan nan nan nan nan nan nan nan nan nan nan nan nan nan 68 nan 78 71 70 nan nan 56 nan nan
nan nan nan nan nan nan nan nan nan nan nan nan nan nan nan nan nan nan nan nan nan nan nan nan nan 44 53 63 nan 76 nan nan
nan nan nan nan nan nan nan nan nan nan nan nan nan nan nan nan nan nan nan nan nan nan nan nan nan nan nan nan nan nan nan nan
nan nan nan nan nan nan nan nan nan nan nan nan nan nan nan nan nan nan nan nan nan nan nan nan nan nan nan nan nan nan nan nan
nan nan nan nan nan nan nan nan nan nan nan nan nan nan nan nan nan nan nan nan nan nan nan nan nan nan nan nan nan nan nan nan
nan nan nan nan nan nan nan nan nan nan nan nan nan nan nan nan nan nan nan nan nan nan nan nan nan nan nan nan nan nan nan nan
Wind_Direction
nan nan nan nan 263 nan 269 277 282 287 287 280 277 277 278 280 281 280 281 283 297 287 280 290 288 nan 275 nan nan nan nan nan
nan nan nan nan nan 260 265 274 284 287 288 286 281 280 278 276 276 273 274 279 280 282 284 285 nan 285 nan nan nan nan nan nan
nan nan nan nan nan nan nan 274 274 277 276 275 269 264 262 266 257 260 264 273 272 276 281 286 289 288 nan nan nan nan nan nan
nan nan nan nan nan nan nan nan 273 273 276 276 270 269 268 265 258 256 259 266 270 276 280 285 289 293 295 nan nan nan nan nan
nan nan nan nan nan nan nan nan nan 272 266 262 259 257 260 265 261 258 260 264 271 275 281 284 289 nan 293 nan nan nan nan nan
nan nan nan nan nan nan nan nan nan nan nan 263 258 258 257 258 258 263 262 262 265 266 nan 276 nan 279 nan nan nan nan nan nan
nan nan nan nan nan nan nan nan nan nan nan nan nan 254 255 257 262 266 268 266 266 267 nan nan nan nan nan nan nan nan nan nan
nan nan nan nan nan nan nan nan nan nan nan nan nan nan nan nan nan nan nan nan nan nan nan nan nan nan nan nan nan nan nan nan
nan nan nan nan nan nan nan nan nan nan nan nan nan nan nan nan nan nan nan 265 nan nan nan nan nan nan nan nan nan nan nan nan
nan nan nan nan nan nan nan nan nan nan nan nan nan nan nan nan nan nan nan nan nan nan nan 269 nan nan nan nan nan nan nan nan
nan nan nan nan nan nan nan nan nan nan nan nan nan nan nan nan nan nan nan nan nan nan nan nan nan nan nan nan nan nan nan nan
nan nan nan nan nan nan nan nan nan nan nan nan nan nan nan nan nan nan nan nan nan nan nan 247 nan nan nan nan nan nan nan nan
nan nan nan nan nan nan nan nan nan nan nan nan nan nan nan nan nan nan nan nan nan nan nan nan 249 nan nan nan nan nan nan nan
nan nan nan nan nan nan nan nan nan nan nan nan nan nan nan nan nan nan nan nan nan nan 259 nan 267 273 258 nan nan 252 nan nan
nan nan nan nan nan nan nan nan nan nan nan nan nan nan nan nan nan nan nan nan nan nan nan nan nan 261 269 270 nan 250 nan nan
nan nan nan nan nan nan nan nan nan nan nan nan nan nan nan nan nan nan nan nan nan nan nan nan nan nan nan nan nan nan nan nan
nan nan nan nan nan nan nan nan nan nan nan nan nan nan nan nan nan nan nan nan nan nan nan nan nan nan nan nan nan nan nan nan
nan nan nan nan nan nan nan nan nan nan nan nan nan nan nan nan nan nan nan nan nan nan nan nan nan nan nan nan nan nan nan nan
nan nan nan nan nan nan nan nan nan nan nan nan nan nan nan nan nan nan nan nan nan nan nan nan nan nan nan nan nan nan nan nan